Las Vegas, NV

10:23 PM PDT on March 22, 2017 (GMT -0700)
McCarran International

Weather History for KLAS - January, 2014

Change the Weather History Date:

Sunday, January 5, 2014

  Actual Average Record
Temperature  
Mean Temperature 46 °F 48 °F  
Max Temperature 57 °F 57 °F 71 °F (2003)
Min Temperature 35 °F 39 °F 12 °F (1950)
Degree Days  
Heating Degree Days 19 17  
Month to date heating degree days 70 87  
Since 1 July heating degree days 873 934  
Cooling Degree Days 0 0  
Month to date cooling degree days 0 0  
Year to date cooling degree days 0 0  
Moisture  
Dew Point 4 °F    
Average Humidity 22    
Maximum Humidity 35    
Minimum Humidity 8    
Precipitation  
Precipitation 0.00 in 0.02 in 0.47 in (1974)
Month to date precipitation 0.00 0.10  
Year to date precipitation 0.00 0.10  
Snow  
Snow 0.00 in 0.00 in 4.70 in (1974)
Month to date snowfall 0.0 0.0  
Since 1 July snowfall 0.0 0.2  
Snow Depth 0.00 in    
Sea Level Pressure  
Sea Level Pressure 30.27 in    
Wind  
Wind Speed 5 mph (SW)    
Max Wind Speed 12 mph    
Max Gust Speed 13 mph    
Visibility 10 miles    
Events      
T = Trace of Precipitation, MM = Missing Value Source: NWS Daily Summary

Daily Weather History Graph

Daily Weather History Graph

Search for Another Location

Airport or City:

Trip Planner

Search our weather history database for the weather conditions in past years. The results will help you decide how hot, cold, wet, or windy it might be!

Date:

Astronomy

Jan. 05, 2014 Rise Set
Actual Time 6:51 AM PST 4:40 PM PST
Civil Twilight 6:23 AM PST 5:08 PM PST
Nautical Twilight 5:51 AM PST 5:40 PM PST
Astronomical Twilight 5:20 AM PST 6:11 PM PST
Moon 9:45 AM PST (1/5) 10:02 PM PST (1/5)
Length of Visible Light 10h 45m
Length of Day
9h 48m
Waxing Crescent, 25% of the Moon is Illuminated
Jan 5
Waxing Crescent
Jan 7
First Quarter
Jan 15
Full
Jan 23
Last Quarter
Jan 30
New

Hourly Weather History & Observations

Time (PST) Temp. Windchill Dew Point Humidity Pressure Visibility Wind Dir Wind Speed Gust Speed Precip Events Conditions
12:56 AM 43.0 °F 38.8 °F 12.9 °F 30% 30.17 in 10.0 mi South 6.9 mph - N/A   Clear
1:56 AM 39.0 °F 34.0 °F 14.0 °F 36% 30.19 in 10.0 mi SW 6.9 mph - N/A   Clear
2:56 AM 37.9 °F 31.5 °F 12.9 °F 36% 30.21 in 10.0 mi SSW 9.2 mph - N/A   Clear
3:56 AM 37.9 °F 33.5 °F 10.9 °F 33% 30.22 in 10.0 mi SSW 5.8 mph - N/A   Clear
4:56 AM 37.0 °F 31.6 °F 10.0 °F 33% 30.23 in 10.0 mi SW 6.9 mph - N/A   Clear
5:56 AM 36.0 °F 30.3 °F 9.0 °F 33% 30.24 in 10.0 mi South 6.9 mph - N/A   Clear
6:56 AM 35.1 °F 31.0 °F 8.1 °F 33% 30.28 in 10.0 mi SSW 4.6 mph - N/A   Clear
7:56 AM 39.9 °F 35.1 °F 3.9 °F 22% 30.30 in 10.0 mi SSW 6.9 mph - N/A   Clear
8:56 AM 45.0 °F - -0.0 °F 15% 30.32 in 10.0 mi Calm Calm - N/A   Clear
9:56 AM 46.9 °F - -0.0 °F 14% 30.32 in 10.0 mi South 3.5 mph - N/A   Clear
10:56 AM 50.0 °F - -0.0 °F 13% 30.29 in 10.0 mi Variable 3.5 mph - N/A   Clear
11:56 AM 51.1 °F - -0.9 °F 12% 30.27 in 10.0 mi Variable 3.5 mph - N/A   Partly Cloudy
12:56 PM 53.1 °F - -2.0 °F 10% 30.24 in 10.0 mi Variable 3.5 mph - N/A   Clear
1:56 PM 55.9 °F - -4.0 °F 9% 30.22 in 10.0 mi Variable 5.8 mph - N/A   Clear
2:56 PM 55.9 °F - -5.1 °F 8% 30.23 in 10.0 mi NE 5.8 mph - N/A   Clear
3:56 PM 55.9 °F - -2.9 °F 9% 30.24 in 10.0 mi East 6.9 mph - N/A   Clear
4:56 PM 52.0 °F - -0.9 °F 11% 30.25 in 10.0 mi Calm Calm - N/A   Clear
5:56 PM 50.0 °F - 1.0 °F 13% 30.27 in 10.0 mi Calm Calm - N/A   Clear
6:56 PM 48.9 °F - 1.9 °F 15% 30.29 in 10.0 mi NNW 4.6 mph - N/A   Clear
7:56 PM 46.9 °F - 3.0 °F 16% 30.30 in 10.0 mi Calm Calm - N/A   Clear
8:56 PM 46.0 °F 44.8 °F 3.9 °F 18% 30.31 in 10.0 mi WNW 3.5 mph - N/A   Clear
9:56 PM 44.1 °F 41.5 °F 6.1 °F 21% 30.33 in 10.0 mi West 4.6 mph - N/A   Clear
10:56 PM 43.0 °F 39.5 °F 7.0 °F 23% 30.32 in 10.0 mi West 5.8 mph - N/A   Clear
11:56 PM 42.1 °F 38.4 °F 8.1 °F 25% 30.33 in 10.0 mi South 5.8 mph - N/A   Clear